20:19
Airports
History
Links
Donate
Help keep this website running!
PayPal
Bitcoin
This page is community maintained. The information is intended for PC simulator navigation or reference.
Always use approved charts for navigation.
IA33
Dads Field
Dads Field (IA33)
Rockwell, Iowa, United States (50469)
4
Lat/Lng:43° 0' 43" N / 93° 14' 32.73" W
43.011944 / -93.242426
Elevation:1200'ft / 366mMSL
ID / ICAO:IA33
Runways:1
Longest:09-27
Grass 789m / 2,587ft
Nearby Weather19:53 GMT 2018-01-21
Nearby weather at KMCW, Mason City Muni located 11.0 nautical miles from IA33
Altimeter: 29.84
Visibility: 4.0 statute miles
Wind: 8 knots (from 040°)
Temp: 3°c / 37°f
Humidity: 86.7%

METAR: KMCW 211953Z AUTO 04008KT 4SM BR OVC021 03/01 A2984 RMK AO2 SLP112 T00280006

(Powered by phpweather)
Nearby VORs <50NM
Nearby NDBs
Runway 09 / 27
Dimensions:788.6 x 29m 2587' x 95'ft
Surface:Grass
Runway 09 [A]Runway 27 [B]
Heading:092°TH 272°TH
Lat:
Lng:
43° 0' 43.67"N
93° 14' 50.26"W
43° 0' 42.33"N
93° 14' 15.2"W
User Notes and Comments
43° 0' 43" N / 93° 14' 32.73" W
Distance To
Airport ID:
Nearby Airports
(U) Mason City Muni 11.0 NM
KMCW ( WX ) NNW 336°
4 Spotts Field 12.3 NM
1Y6 NE 45°
(R) Beeds Lake 16.9 NM
IA31 S 180°
(U) Hampton Muni 19.9 NM
KHPT S 177°
4 Folkerts 20.5 NM
2Y5 ENE 63°
4 Belmond Muni 20.9 NM
Y48 WSW 238°
(U) Forest City Muni 24.6 NM
KFXY NW 308°
VFR Chart
Flight Planning at SkyVector.com